OBJECT D, 61241

Orbit data source: Space-Track

You're viewing an Uncataloged Satellite

Recently launched and/or uncataloged satellites may have evolving metadata. Metadata may include but not limited to: Owner, Maufacturer, Bus, Motor, and Mission.

OBJECT D, 61241 is a satellite owned by Yunyao yuhang (CN) in SSO that was launched on Tue, 24 Sep 2024 UTC via a LIJIAN-1 launch vehicle from the Jiuquan Satellite Launch Center, China (JSC). Unknown objects in Earth's orbit typically refer to objects detected orbiting the Earth but have not yet been identified or cataloged. These objects could be anything from previously untracked satellites, spent rocket stages, debris from satellite collisions, or even natural meteoroids temporarily captured by Earth's gravity.

Loading next visibility...
Identifier
61241, 2024-174D
Orbit
SSO
Last TLE update
7 hours ago
Origin
Flag of CNYYAO (CN / PRC)
Manufacturer
Changguang WJ
Mission
Operational Commercial Weather
Bus & Motor
YY-1, Unknown motor
Mass
~50 kg wet, ~50 kg dry
Launch date (UTC)
2024-09-24 (7 months ago)
Launch vehicle
LIJIAN-1
Launch site
Jiuquan Satellite Launch Center, China (JSC)
Object type
Unknown
Shape & HBR
Box + 1 Pan, 5 m
Radar Cross Section
5.339 m², Medium (>0.1 m² and < 1m²)

Expand to show TLE details & history

TLE from 7 hours ago
0 OBJECT D
1 61241U 24174D   25128.93521426  .00007623  00000-0  33316-3 0  9999
2 61241  97.4463 137.1404 0012973 206.7630 153.2938 15.22303932 34272
Epoch: 2025-05-08T22:26Z
Definitive object data (Epoch: 2025-05-08T22:26:42.512Z)
Latitude
-0.00003°
Longitude
-66.53531°
Altitude
509.959 km
Speed
7.605 km/s
True Right ascension
09h 08m 33s
True Declination
0° 00' 00"
Sunlit
Object was in daylight at TLE epoch
Visualization TLE readout
Latitude
-74.05438°
Longitude
86.71114°
Altitude
520.233 km
Speed
7.605 km/s
Apparent Right ascension
00h 32m 10s
Apparent Declination
-65° 10' 58"
Sunlit
Object is in full shadow
Visualization observer readout
Local Sidereal Time
14:01:15
Azimuth
160.407° S
Elevation
-61.68°
Doppler factor
1
Orbital elements
Apogee altitude
504.775 km
Perigee altitude
486.94 km
Semi-major axis
6,873.995 km
Eccentricity
0.0012973
Inclination
97.4463°
RAAN
137.1404°
Arg. of periapsis
206.763°
True anomaly
153.36051°
Mean anomaly
153.2938°
Eccentric anomaly
153.32717°
Mean motion
3.80828 °/min
BSTAR
0.00033316
Orbital period
94.53 mins
Loading maneuver chart data...
Loading SW <> Apogee altitude chart data...
Loading historical data...
Loading historical data...
Loading historical data...
Loading historical data...
Loading historical data...
Loading historical data...
Loading historical data...

OBJECT D Visibility forecast

Observer location: undefined°, undefined°

Span
Click to sort rows by Start time (UTC) header in descending order
Start Az.
Max El. time (UTC)
Max El. Az.
Max El.
End time (UTC)
End Az.
6 mins2025-05-09 13:12:30.923Z20.411° NNE2025-05-09 13:15:30.923Z108.396° ESE41.84°2025-05-09 13:18:30.923Z181.714° SSW
4 mins2025-05-09 23:50:30.923Z111.642° ESE2025-05-09 23:52:30.923Z66.558° ENE22.248°2025-05-09 23:54:30.923Z25.075° NE
4 mins2025-05-10 01:24:30.923Z233.661° WSW2025-05-10 01:26:30.923Z276.271° WNW18.378°2025-05-10 01:28:30.923Z310.774° NW
|